Regional Weather Roundup
Issued by NWS Sioux Falls, SD

Home | Current Version | Previous Version | Text Only | Print | Product List | Glossary On
Versions: 1 2 3 4 5 6 7 8 9 10 11 12 13 14 15 16 17 18 19 20 21 22 23 24 25 26 27 28 29 30 31 32 33 34 35 36 37 38 39 40 41 42 43 44 45 46 47 48 49 50
000
ASUS43 KFSD 260210
RWRFSD

WEATHER ROUNDUP FOR SE SOUTH DAKOTA/SW MINNESOTA/NW IOWA
NATIONAL WEATHER SERVICE SIOUX FALLS SD
900 PM CDT SAT MAR 25 2017

NOTE: "FAIR" INDICATES FEW OR NO CLOUDS BELOW 12,000 FEET WITH NO
SIGNIFICANT WEATHER AND OR OBSTRUCTIONS TO VISIBILITY.


SDZ038>040-050-052>070-260300-
SOUTHEAST SOUTH DAKOTA

CITY           SKY/WX    TMP DP  RH WIND       PRES   REMARKS
BROOKINGS      CLOUDY    37  36  96 E9        30.00R
CHAMBERLAIN    CLOUDY    39  36  88 E7        29.94F
HURON          CLOUDY    41  38  89 E12       29.98S
MADISON        CLOUDY    37  37 100 E12       29.99S FOG
MITCHELL       CLOUDY    42  40  92 E10       29.99R FOG
SIOUX FALLS    CLOUDY    40  38  93 E10       29.98F FOG
WINNER         FAIR      40  34  79 SE15      29.91S
YANKTON        CLOUDY    39  37  93 E10       29.97S
$$

MNZ071-072-080-081-089-090-097-098-260300-
SOUTHWEST MINNESOTA

CITY           SKY/WX    TMP DP  RH WIND       PRES   REMARKS
FAIRMONT       MIX PCPN  37  36  96 NE10      30.00F
JACKSON        CLOUDY    36  36 100 NE10      29.99F FOG
LUVERNE        CLOUDY    36  34  93 E8        30.00S
MARSHALL       CLOUDY    37  37 100 E8        30.03S
MONTEVIDEO     CLOUDY    39  36  87 SE6       30.06S
PIPESTONE      CLOUDY    37  34  87 E12       29.98F FOG
REDWOOD FALLS  CLOUDY    40  34  79 NE7       30.04S
TRACY          CLOUDY    39  37  91 E8        30.02S
WINDOM         CLOUDY    37  37 100 NE10      30.01S FOG
WORTHINGTON    CLOUDY    36  36 100 NE10      30.00S
$$

IAZ001>003-012>014-020>022-031-032-NEZ013-014-SDZ071-260300-
NORTHWEST IOWA

CITY           SKY/WX    TMP DP  RH WIND       PRES   REMARKS
CHEROKEE       CLOUDY    38  38 100 NE7       29.97S FOG
ESTHERVILLE    CLOUDY    36  36 100 NE13      29.98S FOG
LE MARS        CLOUDY    39  37  93 NE8       30.00S
ORANGE CITY    CLOUDY    37  37 100 NE7       29.99S FOG
SHELDON        CLOUDY    37  37 100 NE9       29.98R
SIOUX CITY     CLOUDY    40  39  97 NE7       29.99R FOG
SPENCER        CLOUDY    38  37  97 NE13      29.98S
STORM LAKE     CLOUDY    37  37 100 NE16G22   29.95S FOG
$$

ABBREVIATIONS USED IN REMARKS
   TC - TEMPERATURE IN CELSIUS
  WCI - WIND CHILL INDEX
   HX - HEAT INDEX
  VSB - VISIBILITY




USA.gov is the U.S. government's official web portal to all federal, state and local government web resources and services.